{"data":{"norad_id":54827,"intl_designator":"2022-177H","name":"STARLINK-5383","alt_names":[],"object_type":"PAYLOAD","status":"ACTIVE","operator":null,"country":"US","launch_date":"2022-12-28","launch_site_code":"AFETR","launch_vehicle":null,"mission":null,"orbit_class":"UNKNOWN","rcs_meters":null,"size_class":null,"mass_kg":null,"dimensions":null,"purposes":["comms"],"wikipedia_slug":null,"has_3d_model":false,"image_url":null,"decayed_at":null,"tle_current":{"epoch":"2026-05-25T03:22:56.326080Z","epoch_age_seconds":73047,"freshness":"FRESH","line1":"1 54827U 22177H   26145.14092970  .00002263  00000+0  91721-4 0  9991","line2":"2 54827  43.0021  64.4688 0001267 249.5274 110.5442 15.27586862188614","mean_motion":15.27586862,"eccentricity":0.0001267,"inclination_deg":43.0021,"raan_deg":64.4688,"arg_perigee_deg":249.5274,"mean_anomaly_deg":110.5442,"bstar":9.1721e-5,"rev_number":18861,"period_min":94.266325262491,"perigee_km":482.15923914494,"apogee_km":483.89785849501,"semimajor_km":6861.16554882,"source":"CELESTRAK","updated_at":"2026-05-25T13:38:17.721405Z"}}}